| time (UTC) | temp C | wind direction | speed KPH | gust KPH | rain 1hr cm | rain 24hr cm | rain mn cm | humidity % | barometer mb |
| 20260507093017 | 8 | 190 | 0.0 | 1.6 | 0.15 | 0.94 | 0.58 | 94 | 1009.8 |
| 20260507091558 | 8 | 285 | 0.0 | 3.2 | 0.15 | 0.91 | 0.56 | 94 | 1009.8 |
| 20260507084555 | 8 | 129 | 0.0 | 3.2 | 0.10 | 0.81 | 0.46 | 93 | 1009.9 |
| 20260507083044 | 8 | 163 | 0.0 | 6.4 | 0.15 | 0.79 | 0.43 | 93 | 1009.7 |
| 20260507081543 | 9 | 307 | 0.0 | 6.4 | 0.18 | 0.76 | 0.41 | 94 | 1010.1 |
| 20260507080043 | 9 | 307 | 0.0 | 6.4 | 0.18 | 0.71 | 0.38 | 94 | 1009.6 |
| 20260507074538 | 9 | 240 | 0.0 | 4.8 | 0.20 | 0.71 | 0.36 | 94 | 1010.0 |
| 20260507073035 | 9 | 271 | 0.0 | 1.6 | 0.23 | 0.64 | 0.28 | 93 | 1010.1 |
| 20260507071534 | 10 | 307 | 0.0 | 4.8 | 0.23 | 0.58 | 0.23 | 93 | 1010.0 |
| 20260507070033 | 10 | 229 | 0.0 | 0.0 | 0.20 | 0.56 | 0.20 | 92 | 1010.0 |
| 20260507064514 | 10 | 263 | 0.0 | 4.8 | 0.15 | 0.51 | 0.15 | 92 | 1009.5 |
| 20260507063012 | 10 | 297 | 0.0 | 4.8 | 0.03 | 0.38 | 0.03 | 91 | 1009.7 |
| 20260507061552 | 10 | 11 | 0.0 | 6.4 | 0.00 | 0.36 | 0.00 | 89 | 1008.8 |
| 20260507060049 | 10 | 284 | 0.0 | 4.8 | 0.00 | 0.36 | 0.00 | 89 | 1009.0 |
| 20260507054537 | 11 | 299 | 0.0 | 8.0 | 0.00 | 0.36 | 0.00 | 90 | 1009.3 |
| 20260507053029 | 11 | 271 | 0.0 | 6.4 | 0.00 | 0.36 | 0.00 | 89 | 1009.3 |
| 20260507051511 | 11 | 30 | 0.0 | 8.0 | 0.00 | 0.36 | 0.00 | 90 | 1009.4 |
| 20260507050008 | 11 | 143 | 0.0 | 6.4 | 0.00 | 0.36 | 0.00 | 91 | 1009.3 |
| 20260507044550 | 11 | 322 | 0.0 | 1.6 | 0.00 | 0.36 | 0.00 | 93 | 1009.8 |
| 20260507043047 | 11 | 124 | 0.0 | 1.6 | 0.00 | 0.36 | 0.00 | 93 | 1009.7 |
| 20260507041530 | 12 | 124 | 0.0 | 1.6 | 0.00 | 0.36 | 0.00 | 93 | 1009.4 |
| 20260507040026 | 12 | 58 | 0.0 | 1.6 | 0.00 | 0.36 | 0.36 | 94 | 1009.4 |
| 20260507034513 | 12 | 255 | 0.0 | 1.6 | 0.03 | 0.36 | 0.36 | 94 | 1009.4 |
| 20260507033013 | 13 | 288 | 0.0 | 1.6 | 0.03 | 0.36 | 0.36 | 95 | 1009.4 |
| 20260507031512 | 13 | 143 | 0.0 | 1.6 | 0.03 | 0.36 | 0.36 | 95 | 1009.6 |
| 20260507030011 | 13 | 143 | 0.0 | 0.0 | 0.03 | 0.36 | 0.36 | 95 | 1009.3 |
| 20260507024513 | 13 | 143 | 0.0 | 0.0 | 0.00 | 0.33 | 0.33 | 95 | 1009.2 |
| 20260507023010 | 13 | 143 | 0.0 | 1.6 | 0.00 | 0.33 | 0.33 | 95 | 1009.1 |
| 20260507021510 | 13 | 107 | 0.0 | 0.0 | 0.00 | 0.33 | 0.33 | 95 | 1009.1 |
| 20260507020010 | 13 | 86 | 0.0 | 3.2 | 0.00 | 0.33 | 0.33 | 95 | 1009.1 |
| 20260507014506 | 13 | 121 | 0.0 | 0.0 | 0.00 | 0.33 | 0.33 | 95 | 1009.2 |
| 20260507013014 | 13 | 158 | 0.0 | 1.6 | 0.00 | 0.33 | 0.33 | 94 | 1009.3 |
| 20260507011554 | 13 | 169 | 0.0 | 4.8 | 0.00 | 0.33 | 0.33 | 94 | 1009.2 |
| 20260507004602 | 13 | 158 | 0.0 | 4.8 | 0.00 | 0.33 | 0.33 | 94 | 1008.8 |
| 20260507003054 | 13 | 91 | 0.0 | 3.2 | 0.00 | 0.33 | 0.33 | 94 | 1008.9 |
| 20260507001555 | 13 | 195 | 0.0 | 3.2 | 0.00 | 0.33 | 0.33 | 94 | 1008.8 |
| 20260507000053 | 13 | 156 | 0.0 | 6.4 | 0.00 | 0.33 | 0.33 | 94 | 1009.1 |
| 20260506234553 | 13 | 121 | 0.0 | 6.4 | 0.00 | 0.33 | 0.33 | 94 | 1009.0 |
| 20260506233107 | 13 | 175 | 0.0 | 1.6 | 0.00 | 0.33 | 0.33 | 94 | 1008.9 |
| 20260506231533 | 13 | 78 | 0.0 | 6.4 | 0.00 | 0.33 | 0.33 | 94 | 1008.8 |
| 20260506230038 | 13 | 244 | 0.0 | 1.6 | 0.00 | 0.33 | 0.33 | 94 | 1008.6 |
| 20260506224514 | 13 | 146 | 0.0 | 8.0 | 0.00 | 0.33 | 0.33 | 94 | 1008.5 |
| 20260506223014 | 13 | 212 | 0.0 | 1.6 | 0.00 | 0.33 | 0.33 | 94 | 1008.4 |
| 20260506221608 | 13 | 155 | 0.0 | 4.8 | 0.00 | 0.33 | 0.33 | 94 | 1008.3 |
| 20260506220056 | 13 | 129 | 0.0 | 4.8 | 0.00 | 0.33 | 0.33 | 94 | 1008.3 |
| 20260506214549 | 13 | 172 | 0.0 | 4.8 | 0.00 | 0.33 | 0.33 | 93 | 1008.2 |
| 20260506213058 | 13 | 332 | 0.0 | 6.4 | 0.03 | 0.33 | 0.33 | 93 | 1008.2 |
| 20260506211546 | 13 | 238 | 0.0 | 6.4 | 0.05 | 0.33 | 0.33 | 93 | 1008.1 |
| 20260506210042 | 13 | 114 | 0.0 | 8.0 | 0.08 | 0.33 | 0.33 | 93 | 1008.2 |
| 20260506204540 | 13 | 141 | 0.0 | 11.3 | 0.08 | 0.33 | 0.33 | 93 | 1008.4 |
| 20260506203037 | 13 | 174 | 0.0 | 4.8 | 0.05 | 0.30 | 0.30 | 93 | 1008.7 |
| 20260506201541 | 14 | 178 | 0.0 | 3.2 | 0.03 | 0.28 | 0.28 | 92 | 1008.7 |
| 20260506200135 | 14 | 162 | 0.0 | 12.9 | 0.00 | 0.25 | 0.25 | 92 | 1008.7 |
| 20260506194516 | 14 | 121 | 1.6 | 9.7 | 0.00 | 0.25 | 0.25 | 92 | 1008.8 |
| 20260506193015 | 15 | 121 | 0.0 | 11.3 | 0.03 | 0.25 | 0.25 | 92 | 1009.0 |
| 20260506191556 | 14 | 25 | 1.6 | 11.3 | 0.08 | 0.25 | 0.25 | 92 | 1009.3 |
| 20260506190056 | 14 | 245 | 1.6 | 11.3 | 0.08 | 0.25 | 0.25 | 92 | 1009.5 |
| 20260506184546 | 14 | 268 | 0.0 | 8.0 | 0.10 | 0.25 | 0.25 | 92 | 1009.8 |
| 20260506183050 | 14 | 150 | 1.6 | 8.0 | 0.13 | 0.23 | 0.23 | 92 | 1009.9 |
| 20260506181519 | 14 | 181 | 1.6 | 9.7 | 0.15 | 0.18 | 0.18 | 91 | 1010.0 |
| 20260506180118 | 14 | 206 | 0.0 | 12.9 | 0.18 | 0.18 | 0.18 | 90 | 1009.8 |
| 20260506174614 | 14 | 150 | 1.6 | 9.7 | 0.15 | 0.15 | 0.15 | 90 | 1010.0 |
| 20260506173101 | 15 | 152 | 1.6 | 6.4 | 0.10 | 0.10 | 0.10 | 89 | 1010.4 |
| 20260506171553 | 15 | 141 | 0.0 | 8.0 | 0.03 | 0.03 | 0.03 | 87 | 1010.6 |
| 20260506170041 | 15 | 254 | 0.0 | 6.4 | 0.00 | 0.00 | 0.00 | 84 | 1010.9 |
| 20260506164540 | 16 | 158 | 0.0 | 8.0 | 0.00 | 0.00 | 0.00 | 82 | 1011.0 |
| 20260506163040 | 16 | 261 | 1.6 | 11.3 | 0.00 | 0.00 | 0.00 | 81 | 1011.1 |
| 20260506161537 | 17 | 104 | 3.2 | 11.3 | 0.00 | 0.00 | 0.00 | 80 | 1011.2 |
| 20260506160036 | 17 | 219 | 3.2 | 14.5 | 0.00 | 0.00 | 0.00 | 79 | 1011.3 |
| 20260506154535 | 17 | 75 | 4.8 | 12.9 | 0.00 | 0.00 | 0.00 | 79 | 1011.4 |
| 20260506153045 | 17 | 180 | 4.8 | 11.3 | 0.00 | 0.00 | 0.00 | 78 | 1011.5 |
| 20260506151536 | 17 | 42 | 0.0 | 12.9 | 0.00 | 0.00 | 0.00 | 79 | 1011.2 |
| 20260506150015 | 17 | 136 | 1.6 | 16.1 | 0.00 | 0.00 | 0.00 | 79 | 1011.3 |
| 20260506144516 | 17 | 139 | 3.2 | 16.1 | 0.00 | 0.00 | 0.00 | 77 | 1011.4 |
| 20260506143056 | 18 | 77 | 3.2 | 9.7 | 0.00 | 0.00 | 0.00 | 77 | 1011.5 |
| 20260506141555 | 18 | 77 | 4.8 | 11.3 | 0.00 | 0.00 | 0.00 | 76 | 1011.4 |
| 20260506140037 | 18 | 75 | 1.6 | 12.9 | 0.00 | 0.00 | 0.00 | 77 | 1011.7 |
| 20260506134534 | 18 | 178 | 1.6 | 12.9 | 0.00 | 0.00 | 0.00 | 78 | 1011.6 |
| 20260506133014 | 17 | 226 | 4.8 | 12.9 | 0.00 | 0.00 | 0.00 | 78 | 1011.4 |
| 20260506131521 | 17 | 266 | 3.2 | 16.1 | 0.00 | 0.00 | 0.00 | 80 | 1011.4 |
| 20260506124556 | 16 | 179 | 3.2 | 14.5 | 0.00 | 0.00 | 0.00 | 81 | 1011.7 |
| 20260506123056 | 16 | 120 | 3.2 | 12.9 | 0.00 | 0.00 | 0.00 | 80 | 1012.2 |
| 20260506121555 | 16 | 101 | 1.6 | 12.9 | 0.00 | 0.00 | 0.00 | 83 | 1012.1 |
| 20260506120050 | 15 | 69 | 1.6 | 11.3 | 0.00 | 0.00 | 0.00 | 85 | 1012.1 |
| 20260506114550 | 15 | 98 | 3.2 | 9.7 | 0.00 | 0.00 | 0.00 | 85 | 1012.1 |
| 20260506113048 | 14 | 70 | 0.0 | 11.3 | 0.00 | 0.00 | 0.00 | 87 | 1012.0 |
| 20260506111548 | 14 | 171 | 0.0 | 4.8 | 0.00 | 0.00 | 0.00 | 87 | 1012.2 |
| 20260506110035 | 13 | 182 | 1.6 | 6.4 | 0.00 | 0.00 | 0.00 | 89 | 1012.3 |
| 20260506104535 | 13 | 77 | 0.0 | 8.0 | 0.00 | 0.00 | 0.00 | 90 | 1012.1 |
| 20260506103033 | 12 | 100 | 0.0 | 4.8 | 0.00 | 0.00 | 0.00 | 90 | 1012.2 |
| 20260506101532 | 12 | 234 | 0.0 | 8.0 | 0.00 | 0.00 | 0.00 | 91 | 1012.0 |
| 20260506100036 | 12 | 250 | 0.0 | 9.7 | 0.00 | 0.00 | 0.00 | 90 | 1011.9 |
| 20260506094530 | 12 | 141 | 0.0 | 6.4 | 0.00 | 0.00 | 0.00 | 89 | 1011.9 |